Regional Weather Roundup
Issued by NWS

Home | Current Version | Previous Version | Graphics & Text | Print | Product List | Glossary On
Versions: 1 2 3 4 5 6 7 8 9 10 11 12 13 14 15 16 17 18 19 20 21 22 23 24 25 26 27 28 29 30 31 32 33 34 35 36 37 38 39 40 41 42 43 44 45 46 47 48 49 50
000
ASUS45 KCYS 290110
RWRWY

WYOMING REGIONAL WEATHER ROUNDUP
NATIONAL WEATHER SERVICE CHEYENNE WY
700 PM MDT WED SEP 28 2016

NOTE:  "FAIR" INDICATES FEW OR NO CLOUDS BELOW 12,000 FEET
WITH NO SIGNIFICANT WEATHER AND/OR OBSTRUCTIONS TO VISIBILITY.

WYZ001-290200-
YELLOWSTONE NATIONAL PARK

CITY           SKY/WX    TMP DP  RH WIND       PRES   REMARKS
LK YELLOWSTONE   N/A     54  38  54 CALM      30.38S
W YELLOWSTONE  NOT AVBL

$$
WYZ002>013-054>058-071-098>099-290200-
NORTHERN WYOMING

CITY           SKY/WX    TMP DP  RH WIND       PRES   REMARKS
JACKSON        CLEAR     66  36  32 CALM      30.26
CODY           FAIR      70  43  37 SE8       30.22S
GREYBULL       FAIR      74  46  36 SE6       30.15F
WORLAND        FAIR      71  41  33 SE12      30.18S
SHERIDAN       FAIR      72  39  30 SE12      30.20S
BUFFALO        NOT AVBL
GILLETTE         N/A     59  48  67 S7        30.26S
HULETT         FAIR      66  45  45 SE9       30.30S
NEWCASTLE      FAIR      68  43  40 SE10      30.29R

$$
WYZ014>020-022>026-101>103-290200-
CENTRAL WYOMING

CITY           SKY/WX    TMP DP  RH WIND       PRES   REMARKS
BIG PINEY      FAIR      68  30  24 CALM      30.33S
PINEDALE       FAIR      63  30  29 E7        30.35S
DUBOIS         FAIR      59  37  44 S6        30.37R
LANDER         FAIR      68  38  33 SW3       30.24S
RIVERTON       LGT RAIN  67  39  35 E8        30.26S
CASPER         FAIR      68  35  29 E10       30.28F
DOUGLAS        FAIR      63  34  33 SE8       30.30S

$$
WYZ021-027>030-104>119-290200-
SOUTHERN WYOMING

CITY           SKY/WX    TMP DP  RH WIND       PRES   REMARKS
EVANSTON       CLOUDY    68  33  27 NE7       30.30R
FORT BRIDGER   FAIR      67  32  26 E8        30.32F
ROCK SPRINGS   LGT RAIN  68  32  26 CALM      30.30S
DIXON          FAIR      69  33  27 N3        30.31S
RAWLINS        FAIR      68  33  27 NE13      30.33S
SARATOGA       FAIR      64  32  29 W13       30.32F
LARAMIE        FAIR      61  31  32 SE12      30.39R
CHEYENNE       FAIR      65  36  34 E10       30.36R
TORRINGTON     FAIR      69  39  33 E10       30.27R
PINE BLUFFS    FAIR      66  34  30 E8        30.33S

$$



USA.gov is the U.S. government's official web portal to all federal, state and local government web resources and services.